Torna al catalogo

ATLAS CENTAUR R/B

AttivoGTO
NORAD 6779·ROCKET BODY·🇺🇸 United States

Lanciato Dec 20, 1971 da Cape Canaveral Space Force Station

Loading…

TLE

In scadenzaSource: Space-Track

Epoca: Sep 14, 2026, 08:13 UTC

1 06779U 71116B   26257.34286199 -.00000117  00000-0  19619-2 0  9997
2 06779  28.4179 354.2983 7187260 193.4960 125.2477  2.19687646417424

Traccia ATLAS CENTAUR R/B in tempo reale con AllMySat

Download on the App Store